Tracking 19903 objects as of 16-Oct-2019
HD Live streaming from Space Station
objects crossing your sky now

COSMOS 1275 DEB

Track COSMOS 1275 DEB now!
10-day predictions


NORAD ID: 42210
Int'l Code: 1981-053UA
Perigee: 936.7 km
Apogee: 1,095.5 km
Inclination: 83.0 °
Period: 105.3 minutes
Semi major axis: 7387 km
RCS: Unknown
Launch date: June 4, 1981
Source: Commonwealth of Independent States (former USSR) (CIS)
Launch site: PLESETSK MISSILE AND SPACE COMPLEX (PKMTR)

Note: This is SATELLITE DEBRIS
aabbcc
Your satellite tracking list
Your tracking list is empty




NASA's NSSDC Master Catalog

Two Line Element Set (TLE):
1 42210U 81053UA  19287.63434122 +.00000132 +00000-0 +13526-3 0  9994
2 42210 083.0104 241.7062 0107497 267.2862 214.1755 13.67380873293926
Source of the keplerian elements: AFSPC